This is the latest recevied weather packets stored in our database for station/object KI2K. If no packets are shown the sender has not sent any weather packets the latest 10 day(s).
| Time | Temp. | Humidity | Pressure | Rain* | Wind** | Luminosity | Snow |
|---|---|---|---|---|---|---|---|
| 1778022087 | 8.33° C | 99% | 1008 hPa | 3.05 mm | - | 6 W/m² | - |
| 1778021783 | 8.33° C | 99% | 1008.1 hPa | 3.05 mm | - | 8 W/m² | - |
| 1778021480 | 8.33° C | 99% | 1008.2 hPa | 3.05 mm | - | 14 W/m² | - |
| 1778021177 | 8.33° C | 99% | 1008.3 hPa | 3.05 mm | - | 15 W/m² | - |
| 1778020874 | 8.33° C | 99% | 1008 hPa | 1.78 mm | - | 12 W/m² | - |
| 1778020571 | 8.33° C | 99% | 1008.1 hPa | 1.78 mm | - | 26 W/m² | - |
| 1778020268 | 8.33° C | 99% | 1008 hPa | 3.05 mm | - | 26 W/m² | - |
| 1778019964 | 8.33° C | 99% | 1008 hPa | 1.27 mm | - | 38 W/m² | - |
| 1778019660 | 8.33° C | 99% | 1008.1 hPa | 3.05 mm | - | 39 W/m² | - |
| 1778019357 | 8.33° C | 99% | 1007.8 hPa | 6.1 mm | - | 32 W/m² | - |
| 1778019054 | 8.33° C | 99% | 1008 hPa | 4.83 mm | - | 36 W/m² | - |
| 1778018751 | 8.33° C | 99% | 1008 hPa | 6.1 mm | - | 38 W/m² | - |
| 1778018449 | 8.33° C | 99% | 1008.1 hPa | 7.11 mm | - | 24 W/m² | - |
| 1778018147 | 8.33° C | 99% | 1008.3 hPa | 6.1 mm | - | 22 W/m² | - |
| 1778017844 | 8.33° C | 99% | 1008.5 hPa | 3.56 mm | - | 18 W/m² | - |
| 1778017542 | 8.89° C | 99% | 1008.6 hPa | 1.78 mm | - | 18 W/m² | - |
| 1778017239 | 8.89° C | 99% | 1008.3 hPa | 1.27 mm | - | 15 W/m² | - |
| 1778016937 | 8.89° C | 99% | 1008.2 hPa | 1.27 mm | - | 30 W/m² | - |
| 1778016632 | 8.89° C | 99% | 1008.2 hPa | 0 mm | - | 34 W/m² | - |
| 1778016329 | 8.89° C | 99% | 1008.2 hPa | 0 mm | - | 19 W/m² | - |
| 1778016026 | 8.89° C | 99% | 1008 hPa | 0 mm | - | 23 W/m² | - |
| 1778015724 | 9.44° C | 99% | 1007.9 hPa | 0 mm | - | 31 W/m² | - |
| 1778015420 | 9.44° C | 99% | 1007.8 hPa | 0 mm | - | 32 W/m² | - |
| 1778015117 | 9.44° C | 99% | 1008 hPa | 0 mm | - | 23 W/m² | - |
| 1778014814 | 9.44° C | 99% | 1007.9 hPa | 0 mm | - | 29 W/m² | - |
* Rain latest hour (hover to see other rain measurements)
** Current wind speed in m/s (hover to see current wind gust speed)